User: anonymous   Login
Location: Churchill Northern Studies Centre
(58.7378°N, 93.8201°W)
Time: 20:16:54
(UTC-05:00)
Language:

Envisat - Orbit

View from above orbital plane
View from above orbital plane
View from above satellite
View from above satellite

Ground track
Ground track

The orbit data is extracted from the following two-line orbital elements,

1 27386U 02009A   18169.58007583 -.00000018  00000-0  76502-5 0  9993
2 27386  98.1839 203.5755 0001232  93.5733  79.0915 14.37924107853725
Epoch (UTC): 18 June 2018 13:55:18
Eccentricity: 0.0001232
inclination: 98.1839°
perigee height: 764 km
apogee height: 766 km
right ascension of ascending node: 203.5755°
argument of perigee: 93.5733°
revolutions per day: 14.37924107
mean anomaly at epoch: 79.0915°
orbit number at epoch: 85372

The dashed part of the orbit path shows where the satellite is in the earth's shadow,  

DLR